Torna al catalogo

PSLV R/B

AttivoSSO
NORAD 25759·ROCKET BODY·🇮🇳 India

Lanciato May 26, 1999 da Satish Dhawan Space Centre

Loading…

Prossimi Passaggi (prossime 24 ore)

TLE

AggiornatoSource: Space-Track

Epoca: Sep 14, 2026, 08:07 UTC

1 25759U 99029D   26257.33840532  .00000126  00000-0  40045-4 0  9993
2 25759  98.6070 295.7366 0026150 339.3376  20.6761 14.55870016448236

Traccia PSLV R/B in tempo reale con AllMySat

Download on the App Store